(333371) = 2002 JM93

Discovered at Socorro on 2002-05-11 by LINEAR.

Orbit

Orbit type: Main Belt

Note: WebGL enabled browser required.

epoch2024-03-31.0
epoch JD2460400.5
perihelion date2022-02-26.73377
perihelion JD2459637.23377
argument of perihelion (°)65.31867
ascending node (°)235.88353
inclination (°)7.45989
eccentricity0.1987426
perihelion distance (AU)1.7494854
Tisserand w.r.t. Jupiter3.6
ΔV w.r.t. Earth (km/sec)8.4
semimajor axis (AU)2.1834250
mean anomaly (°)233.16990
mean daily motion (°/day)0.30548960
aphelion distance (AU)2.617
period (years)3.23
P-vector [x]0.51169274
P-vector [y]-0.82773168
P-vector [z]-0.23028418
Q-vector [x]0.85241827
Q-vector [y]0.45556430
Q-vector [z]0.25660138
absolute magnitude17.43
phase slope0.15
uncertainty0
referenceMPEC 2024-E23
observations used341
oppositions10
arc length (days)7968
first opposition used2002
last opposition used2024
residual rms (arc-secs)0.70
perturbers coarse indicatorM-v
perturbers precise indicator003Ek
first observation date used2002-05-09.0
last observation date used2024-03-02.0
computer nameMPCLINUX
JD of orbit computation2456132.843717
perihelion JD uncertainty (days)3.2035E-04
argument of perihelion uncertainty (°)1.8827E-04
ascending node uncertainty (°)6.1265E-05
inclination uncertainty (°)1.6511E-05
eccentricity uncertainty 4.2255E-07
perihelion distance uncertainty (AU)8.3569E-07
Minimum Orbit Intersection Distances (in AU)
for orbit epoch: 2460400.5, reference: E2024-E23
Mercury1.31669
Venus1.0365
Earth0.7497
Mars0.36353
Jupiter2.60739
Saturn6.4794
Uranus15.9427
Neptune27.4636

Observations

357 total observations over interval: 2002 05 09.44118 – 2024 03 02.460931
These data are available for download (format description).

Date (UT) J2000 RA J2000 Dec Magn Location Ref
2002 05 09.44118 15 34 23.25 -20 18 25.5 19.2   644 – Palomar Mountain/NEAT MPS 55460
2002 05 09.45174 15 34 22.64 -20 18 19.4 19.0   644 – Palomar Mountain/NEAT MPS 55460
2002 05 09.46218 15 34 22.02 -20 18 13.6 19.2   644 – Palomar Mountain/NEAT MPS 55460
2002 05 11.29565 15 32 38.61 -20 01 16.7 18.6   704 – Lincoln Laboratory ETS, New Mexico MPS 55460
2002 05 11.31022 15 32 37.74 -20 01 08.4 19.1   704 – Lincoln Laboratory ETS, New Mexico MPS 55460
2002 05 11.32479 15 32 36.86 -20 01 00.5 19.1   704 – Lincoln Laboratory ETS, New Mexico MPS 55460
2002 05 11.33940 15 32 35.96 -20 00 52.0 19.2   704 – Lincoln Laboratory ETS, New Mexico MPS 55460
2002 05 11.35401 15 32 35.07 -20 00 44.5 20.0   704 – Lincoln Laboratory ETS, New Mexico MPS 55460
2002 05 13.29374 15 30 43.17 -19 42 19.4 18.5   704 – Lincoln Laboratory ETS, New Mexico MPS 55460
2002 05 13.32316 15 30 41.36 -19 42 03.3 19.1   704 – Lincoln Laboratory ETS, New Mexico MPS 55460
2002 05 13.33791 15 30 40.43 -19 41 53.7 19.1   704 – Lincoln Laboratory ETS, New Mexico MPS 55460
2002 05 13.35263 15 30 39.53 -19 41 45.1 18.9   704 – Lincoln Laboratory ETS, New Mexico MPS 55460
2002 05 17.26498 15 26 49.58 -19 03 33.8 18.6   644 – Palomar Mountain/NEAT MPS 55460
2002 05 17.34346 15 26 44.68 -19 02 47.4 18.4   644 – Palomar Mountain/NEAT MPS 55460
2002 05 17.40699 15 26 40.72 -19 02 09.0 18.6   644 – Palomar Mountain/NEAT MPS 55460
2002 05 21.24160 15 22 55.80 -18 23 50.7 18.8   704 – Lincoln Laboratory ETS, New Mexico MPS 57734
2002 05 21.25662 15 22 54.83 -18 23 40.8 19.3   704 – Lincoln Laboratory ETS, New Mexico MPS 57734
2002 05 21.27163 15 22 53.83 -18 23 31.1 19.0   704 – Lincoln Laboratory ETS, New Mexico MPS 57734
2002 05 21.30171 15 22 52.17 -18 23 12.6 19.5   704 – Lincoln Laboratory ETS, New Mexico MPS 57734
2002 05 31.16776 15 13 56.72 -16 45 40.6 19.5   644 – Palomar Mountain/NEAT MPS 57734
2002 05 31.17418 15 13 56.39 -16 45 36.8 19.4   644 – Palomar Mountain/NEAT MPS 57734
2002 05 31.18024 15 13 56.09 -16 45 33.3 19.5   644 – Palomar Mountain/NEAT MPS 57734
2002 06 03.24464 15 11 32.31 -16 16 48.3 20.4   644 – Palomar Mountain/NEAT MPS 57734
2002 06 03.26767 15 11 31.23 -16 16 35.1 20.7   644 – Palomar Mountain/NEAT MPS 57734
2002 06 03.30901 15 11 29.30 -16 16 13.2 20.8   644 – Palomar Mountain/NEAT MPS 57734
2002 06 08.24392 15 08 10.73 -15 32 49.5 19.4   704 – Lincoln Laboratory ETS, New Mexico MPS 57734
2002 06 08.27155 15 08 09.72 -15 32 34.1 19.0   704 – Lincoln Laboratory ETS, New Mexico MPS 57734
2002 06 08.28510 15 08 09.14 -15 32 27.8 19.3   704 – Lincoln Laboratory ETS, New Mexico MPS 57734
2002 06 11.23952 15 06 32.68 -15 08 32.9 19.3   644 – Palomar Mountain/NEAT MPS 57734
2002 06 11.26029 15 06 32.03 -15 08 22.8 19.8   644 – Palomar Mountain/NEAT MPS 57734
2002 06 11.29176 15 06 30.95 -15 08 08.1 19.8   644 – Palomar Mountain/NEAT MPS 57734
2006 10 28.32984 04 18 19.54 +22 01 41.7 20.1 V G96 – Mt. Lemmon Survey MPS 186857
2006 10 28.34009 04 18 19.00 +22 01 38.9 20.2 V G96 – Mt. Lemmon Survey MPS 186857
2006 10 28.36071 04 18 18.00 +22 01 31.7 20.1 V G96 – Mt. Lemmon Survey MPS 186857
2006 11 10.22881 04 05 49.83 +20 42 42.1 20.3 V 691 – Steward Observatory, Kitt Peak-Spacewatch MPS 186857
2006 11 10.24619 04 05 48.66 +20 42 34.9 20.5 V 691 – Steward Observatory, Kitt Peak-Spacewatch MPS 186857
2006 11 10.26357 04 05 47.49 +20 42 27.8 20.6 V 691 – Steward Observatory, Kitt Peak-Spacewatch MPS 186857
2006 11 14.26664 04 01 17.88 +20 15 01.4   691 – Steward Observatory, Kitt Peak-Spacewatch MPS 186857
2006 11 14.29090 04 01 16.18 +20 14 51.3   691 – Steward Observatory, Kitt Peak-Spacewatch MPS 186857
2006 11 14.30828 04 01 14.94 +20 14 44.1   691 – Steward Observatory, Kitt Peak-Spacewatch MPS 186857
2006 11 27.16196 03 46 29.02 +18 43 22.5   691 – Steward Observatory, Kitt Peak-Spacewatch MPS 190367
2006 11 27.17927 03 46 27.83 +18 43 15.5   691 – Steward Observatory, Kitt Peak-Spacewatch MPS 190367
2006 11 27.19659 03 46 26.65 +18 43 08.4   691 – Steward Observatory, Kitt Peak-Spacewatch MPS 190367
2006 11 27.22308 03 46 24.78 +18 42 57.6 19.5 V 703 – Catalina Sky Survey MPS 190367
2006 11 27.23316 03 46 24.13 +18 42 53.0 20.1 V 703 – Catalina Sky Survey MPS 190367
2006 11 27.24330 03 46 23.34 +18 42 47.9 20.4 V 703 – Catalina Sky Survey MPS 190367
2006 11 27.25339 03 46 22.72 +18 42 45.3 19.8 V 703 – Catalina Sky Survey MPS 190367
2006 12 14.23977 03 30 21.85 +16 55 25.2 20.5 V G96 – Mt. Lemmon Survey MPS 191964
2006 12 14.24541 03 30 21.60 +16 55 23.7 20.6 V G96 – Mt. Lemmon Survey MPS 191964
2006 12 14.25111 03 30 21.34 +16 55 21.6 20.7 V G96 – Mt. Lemmon Survey MPS 191964
2006 12 14.25674 03 30 21.06 +16 55 19.9 20.6 V G96 – Mt. Lemmon Survey MPS 191964
2009 09 21.35569 01 45 12.85 +20 29 24.8 19.6 V 703 – Catalina Sky Survey MPS 295757
2009 09 21.36115 01 45 12.67 +20 29 24.0 19.5 V 703 – Catalina Sky Survey MPS 295757
2009 09 21.36671 01 45 12.45 +20 29 22.0 19.5 V 703 – Catalina Sky Survey MPS 295757
2009 09 21.37218 01 45 12.16 +20 29 21.4 19.4 V 703 – Catalina Sky Survey MPS 295757
2009 10 09.43568 01 30 03.27 +18 11 59.8 19.2 V 703 – Catalina Sky Survey MPS 298259
2009 10 09.44359 01 30 02.80 +18 11 54.7 19.9 V 703 – Catalina Sky Survey MPS 298259
2009 10 09.45140 01 30 02.23 +18 11 50.2 19.5 V 703 – Catalina Sky Survey MPS 298259
2009 10 09.45928 01 30 01.80 +18 11 45.6 19.4 V 703 – Catalina Sky Survey MPS 298259
2009 10 14.95399 01 24 38.64 +17 15 29.0 18.4 R 185 – Observatoire Astronomique Jurassien-Vicques MPS 298259
2009 10 14.96054 01 24 38.21 +17 15 24.9 18.0 R 185 – Observatoire Astronomique Jurassien-Vicques MPS 298259
2009 10 14.96706 01 24 37.86 +17 15 20.1 18.2 R 185 – Observatoire Astronomique Jurassien-Vicques MPS 298259
2009 10 14.97354 01 24 37.42 +17 15 16.3 18.3 R 185 – Observatoire Astronomique Jurassien-Vicques MPS 298259
2009 10 14.98677 01 24 36.63 +17 15 08.2 18.1 R 185 – Observatoire Astronomique Jurassien-Vicques MPS 298259
2009 10 15.31659 01 24 17.20 +17 11 38.9 19.3 V G96 – Mt. Lemmon Survey MPS 298259
2009 10 15.32169 01 24 16.88 +17 11 35.4 19.0 V G96 – Mt. Lemmon Survey MPS 298259
2009 10 15.32679 01 24 16.56 +17 11 32.8 19.1 V G96 – Mt. Lemmon Survey MPS 298259
2009 10 15.33177 01 24 16.23 +17 11 29.1 19.3 V G96 – Mt. Lemmon Survey MPS 298259
2009 10 16.23945 01 23 23.25 +17 01 44.8 19.7   704 – Lincoln Laboratory ETS, New Mexico MPS 299309
2009 10 16.25261 01 23 22.44 +17 01 36.3 19.7   704 – Lincoln Laboratory ETS, New Mexico MPS 299309
2009 10 16.26579 01 23 21.68 +17 01 28.1 19.7   704 – Lincoln Laboratory ETS, New Mexico MPS 299309
2009 10 16.27895 01 23 20.80 +17 01 18.9 19.9   704 – Lincoln Laboratory ETS, New Mexico MPS 299309
2009 10 22.31246 01 17 37.78 +15 55 03.7 19.2 V 703 – Catalina Sky Survey MPS 300584
2009 10 22.32091 01 17 37.32 +15 54 57.9 19.1 V 703 – Catalina Sky Survey MPS 300584
2009 10 22.32936 01 17 36.81 +15 54 52.5 19.5 V 703 – Catalina Sky Survey MPS 300584
2009 10 22.33780 01 17 36.34 +15 54 44.4 18.6 V 703 – Catalina Sky Survey MPS 300584
2009 10 24.21947 01 15 55.64 +15 33 53.9 19.6   704 – Lincoln Laboratory ETS, New Mexico MPS 300584
2009 10 24.24635 01 15 54.18 +15 33 35.6 19.6   704 – Lincoln Laboratory ETS, New Mexico MPS 300584
2009 10 24.25978 01 15 53.49 +15 33 27.3 19.8   704 – Lincoln Laboratory ETS, New Mexico MPS 300584
2009 10 24.27321 01 15 52.66 +15 33 17.5 20.1   704 – Lincoln Laboratory ETS, New Mexico MPS 300584
2009 11 10.23875 01 04 26.11 +12 37 59.9 19.6 V 703 – Catalina Sky Survey MPS 302117
2009 11 10.24669 01 04 25.86 +12 37 57.5 20.4 V 703 – Catalina Sky Survey MPS 302117
2009 11 10.25469 01 04 25.57 +12 37 52.2 19.8 V 703 – Catalina Sky Survey MPS 302117
2009 11 10.26254 01 04 25.39 +12 37 49.4 20.3 V 703 – Catalina Sky Survey MPS 302117
2009 11 21.19250 01 01 35.43 +11 12 10.1 20.3 V G96 – Mt. Lemmon Survey MPS 304792
2009 11 21.19859 01 01 35.40 +11 12 07.7 20.3 V G96 – Mt. Lemmon Survey MPS 304792
2009 11 21.20446 01 01 35.36 +11 12 05.1 20.2 V G96 – Mt. Lemmon Survey MPS 304792
2009 11 21.21045 01 01 35.36 +11 12 02.9 20.3 V G96 – Mt. Lemmon Survey MPS 304792
2009 12 16.13003 01 08 51.79 +09 44 55.8 20.5 V G96 – Mt. Lemmon Survey MPS 307233
